Tracking 28766 objects as of 13-Apr-2024
HD Live streaming from Space Station
objects crossing your sky now

STARLINK-31386

Track STARLINK-31386 now!
10-day predictions
STARLINK-31386 is classified as:


NORAD ID: 59298
Int'l Code: 2024-056C
Perigee: 354.4 km
Apogee: 356.7 km
Inclination: 43.0 °
Period: 91.5 minutes
Semi major axis: 6726 km
RCS: Unknown
Launch date: March 24, 2024
Source: United States (US)
Launch site: AIR FORCE EASTERN TEST RANGE (AFETR)
Your satellite tracking list
Your tracking list is empty




NASA's NSSDC Master Catalog

Two Line Element Set (TLE):
1 59298U 24056C   24103.91667824  .00300614  00000-0  20065-2 0  9992
2 59298  43.0004 245.0413 0001722 332.8751 100.5875 15.73670470  3993
Source of the keplerian elements: AFSPC